{"data":{"norad_id":68824,"epoch":"2026-05-25T02:27:25.315776Z","epoch_age_seconds":76910,"freshness":"FRESH","line1":"1 68824U 26089Y   26145.10237634  .00098719  00000+0  65423-3 0  9993","line2":"2 68824  97.2848 351.7777 0001421  95.4214 264.7213 15.75220543  5068","mean_motion":15.75220543,"eccentricity":0.0001421,"inclination_deg":97.2848,"raan_deg":351.7777,"arg_perigee_deg":95.4214,"mean_anomaly_deg":264.7213,"bstar":0.00065423,"rev_number":506,"period_min":91.415770724874,"perigee_km":343.04845771747,"apogee_km":344.95889009699,"semimajor_km":6722.1406739072,"source":"CELESTRAK","updated_at":"2026-05-25T13:38:22.044744Z"}}